차종별기사보기
차종별 기사검색 close
  • 자유게시판
  • 무엇이든 물어보세요
  • 자동차 정보/토론
  • 시승요청
번호 제목 글쓴이 날짜 조회 수
공지 모바일용 월페이퍼 다운받아서 배경-잠금화면으로 사용해보세요~!!(스팅어,아반떼스포츠 추가업로드) 53 file MG다혜 17-05-10 12430
5069 차세대 마세라티 그란투리스모, 2020년으로 또 다시 출시 연기 1 newfile Supreme 3 시간 전 39
5068 스토닉 전시장 직찍 1 newfile 호떡왕 3 시간 전 86
5067 얼마전 뉴스에서....(feat.) 3 newfile 인데브 3 시간 전 40
5066 여기는 홍콩 3 newfile 인데브 3 시간 전 124
5065 블링님 요청으로 만들어본 쏘나타뉴라이즈 분석 2 newfile 아스티카 4 시간 전 57
5064 DIY를 좋아하는 사람에겐 설레는 사진한장 후기(Feat. 한밤중의 블박장착) 2 newfile 수동매니아 6 시간 전 78
5063 생방송 후기 9 newfile 모터그래프빠돌이 21 시간 전 182
5062 2017 혼다 시빅 타입 R 11 newfile FINALB. 21 시간 전 321
5061 티볼리의 최후의 발악 8 newfile 모터그래프빠돌이 21 시간 전 371
5060 생방송 방문 후기!!! 6 new Mr.홉 22 시간 전 91
5059 기아 비트 360 후기 8 newfile 제네시스G70 23 시간 전 322
5058 1등입니다! 6 updatefile 모터그래프빠돌이 17-07-24 165
5057 주말에 고양도 코나 때문에 잠깐 다녀왔습니다 ㅎ;; 13 updatefile 취준생CAR 17-07-24 471
5056 얼마전에 서울 오토살롱다녀와서찍찍 ㅎㅎ 7 updatefile 취준생CAR 17-07-24 333
5055 이따 비트360오시는 분들! 3 모터그래프빠돌이 17-07-24 176
5054 제네시스 G70 후면 예상도 공개 16 file Genesis 17-07-24 1317
5053 오늘 beat360에 가시는 분 계시나요??? 6 update Mr.홉 17-07-24 180
5052 BeAt 360 이 뭐에요? (위드 현대) 16 file 이토준 17-07-24 635
5051 모그 티셔츠 게시! 37 updatefile anonymous 17-07-23 644
5050 스팅어를 2박3일간 타보았습니다. 23 updatefile 아스티카 17-07-23 2397
5049 역시 모바일은 PC보다 한참 멀었습니다... 5 jisaik 17-07-23 684
5048 연비 인증!(feat.E400 쿠페) 5 file 모터그래프빠돌이 17-07-23 1035
5047 2017 여름휴가 - 준비 완료 15 updatefile 레드불 17-07-23 796
5046 1.6엔진의 최강자를 가려보자 (feat. 추억의 민간기어) 16 후쿠시마산핵버섯 17-07-22 1895
번호 제목 글쓴이 날짜 조회 수
770 결국 소나타.. 하이브리드.. 디젤.. 1.6터보.. ( 아스티카님 ? ) 2 new 블링 9 시간 전 19
769 프라이드는 단종됐나요??? 5 newfile Mr.홉 18 시간 전 108
768 니로 페이스리프트? 4 update 제닉스 17-07-24 70
767 모그 스팅어 질문 아스티카 17-07-24 95
766 소나타&K5 하이브리드 실제 연비는??.. 3 update 블링 17-07-24 203
765 니로 차량 브레이크 문제가 있는지 없는지 소비자들이 매우 궁금해.합니다. 4 블랙깜깜 17-07-22 1066
764 차량 교환 6 차도남 17-07-21 1589
763 서킷에서 보이는 차들에 장착되는 앞범퍼의 저 빨간 부분의 명칭과 용도가 궁금해요 5 file 아이언맨 17-07-21 1067
762 차유리가 파손돼었는데 원인이 뭘까요 3 노프롬 17-07-21 1450
761 벤츠SUV glc250d 몇cc인가요? 3 펄스톤 17-07-21 1451
760 모터그래프스티커 신청 어찌하나요?? 꿈장이 17-07-21 1592
759 i30 1.6디젤.. 어떨까요?.. 15 블링 17-07-21 1568
758 회원 정보 및 마이페이지에 대해 궁금한 점. 1 플린 17-07-20 1908
757 어제 고속도로에서 봤는데 무슨차인가요? 2 file 달려라싼타페 17-07-20 2220
756 오즈모 구입가능한가요 모터 그래프 보유분중에서요 2 둥근돌 17-07-20 2161
755 니로 엔진오일 증가 제닉스 17-07-18 3073
754 아반떼LPI차 100km/h~130km/h는 몇 rpm인가요? 2 지웅이 17-07-16 3901
753 머플러가 수도꼭지형이면 출력이 않좋나요? 2 지웅이 17-07-16 3935
752 독일 3사 세단 추천좀해주세요 1 canada 17-07-16 4146
751 니로 브레이크 소음 3 JasonJi 17-07-15 4487
750 저희 아파트에서 위장막 쳐진 카니발 봤어요 4 프리우스 17-07-14 5030
749 테슬라 모델3 1 Ljhyuk 17-07-13 5290
748 아반떼LPI차량은 힘이 많이 없나요? 지웅이 17-07-13 5337
747 테스트 요청...출발시 밟아서 고 RPM 쓰면 차가 빠르게 나가나요? 3 미스트번 17-07-13 5552
746 자동차의 수명은 보통 몇 년 인가요? 4 지웅이 17-07-12 5954
번호 제목 글쓴이 날짜 조회 수
262 코나 휴즈박스 공개합니다 7 updatefile 이토준 17-07-09 7874
261 토크에 대한 성찰 제 2 탄(마지막) 4 file 이토준 17-06-30 12217
260 신형 스타렉스(?) 9 file Harrison 17-06-29 12870
259 토크에 대한 성찰(스압주의) 15 file 이토준 17-06-29 12672
258 퀴즈) 쉬울까요 8 file 이토준 17-06-26 13669
257 (반) 자율주행 사고에 대한 생각 14 file 이토준 17-06-23 13772
256 chasis와 서스펜션 그리고 마력의 역설 file 이토준 17-06-19 13814
255 2017 푸조 2008 Allure 2. 주행하며 느낀 주행감각, 연비, 편의장비 편 9 file Harrison 17-06-16 13748
254 2017 푸조 2008 Allure 1. 구입기 및 그동안 느낀 실내외장편 19 file Harrison 17-06-15 13771
253 타카타 관련해서 궁굼한게 있는데 9 데마시스 17-06-10 13817
252 코너의 R 값을 이해 못하는 회원분들을 위해 10 file 이토준 17-06-03 13895
251 MBC 발칙한 동거를 보고 있습니다 (feat.김민종 녹색차) 8 file 이토준 17-06-02 13832
250 자동차 구매 보이지 않는 손은?(여러분의 선택은) 7 file 이토준 17-06-02 13799
249 [토론같은 잡담] 왜 자동차회사는 테슬라처럼 못할까? 17 불로동허씨 17-05-30 13797
248 [설문] 정말 아깝게 망한(?) 차는? 12 file 불로동허씨 17-05-25 14010
247 [설문] 만약 국산차 중에 새차로 구입할 수 있다면 사고싶은 옛날차는? 45 file 불로동허씨 17-05-12 14069
246 [토론] 자기가 산 차는 언제까지 타야 할 것인가...? 41 불로동허씨 17-05-09 14014
245 자랑스런 아주대학교 자동차(feat. 만든이 교수말고 학생) 7 file 이토준 17-04-07 14299
244 안녕하세요 얼마전 제 친구 차량(기아 니로 2016년식)에 문제가 생겨 올려놓습니다. 7 취준생CAR 17-03-28 14211
243 타이어 8 대한제국 17-03-25 13836
242 도심형 SUV 사륜은 필수인가? 사치인가? 35 file 김엘리야 17-03-14 6688
241 옆으로 돌면 위험하다..? 그러면 독3사는 왜 이렇게 했을까요? 7 file 차알못 17-03-13 1917
240 참으로 오랜 시간 후에 진실이 밝혀지네요... 29 file 차알못 17-03-12 1637
239 여러분이 생각하는 '양카'와 그 이유는 뭔가요~?(부제:양산 양카등장) 26 file 이토준 17-03-10 1307
238 i30(PD)이 정말 "핫 해치"일까요?? 15 다시산아이 17-03-07 893
번호 제목 글쓴이 날짜 조회 수
265 2018쏘렌토 파워트림별 비교시승 부탁드립니다 영바라기 17-07-22 16
264 포드 퓨전 하이브리드와 말리부 하이브리드 시승 요청드려요 구름9 17-07-21 124
263 현대.기아 시승기 Dkslq 17-07-11 45
262 시승 부탁드립니다. 2 드림카는페라리 17-07-10 41
261 기자님들 시승부탁드려요!!~~^^ jisaik 17-07-06 28
260 김한용기자님~~~~ 2 Ryan 17-06-26 303
259 김한용기자님 1 Ryan 17-06-26 81
258 노블클라쎄 L4 MAYBACH62s 17-06-25 57
257 모닝 1.0T 아스티카 17-06-24 67
256 말리부 하이브리드 미야옹이 17-06-24 51
255 자동차는 아니긴 한데... 1 데마시스 17-06-20 181
254 로터스 에보라 400 시승 해주세요^^ 2 file 아인파더 17-06-15 69
253 시승요청!로터스에보라400이나엑시지s시승해주세요! file 트카둥이 17-06-13 122
252 G4 렉스턴 시승 요청 드립니다. 얼룩덜룩 17-06-13 42
251 기자님 시승해 주세요 드림카는페라리 17-06-12 49
250 스팅어 오버히트 1 Juliokang 17-06-10 290
249 기자님 부탁드립니다. 1 드림카는페라리 17-06-07 60
248 혼다 시빅 시승 부탁 드립니다. 1 불로동허씨 17-06-01 75
247 스팅어 2.0도 롱텀 시승 부탁드립니다 ㅠㅠㅠㅠ 5 bobaapapa 17-05-31 182
246 쏘나타 뉴 라이즈 하이브리드 및 쏘나타 뉴라이즈 영상 비교 시승 요청 부탁드립니다 iechan 17-05-30 134
245 사랑하는 모터그래프 기자님들❤시승요청이요~ 캐딜락cts 17-05-24 92
244 시승요청합니다. 5 드림카는페라리애스턴마틴 17-05-20 75
243 G4 렉스턴 미디어 시승회 호떡왕 17-05-16 104
242 안녕하세요 시승 요청 합니다 2 Dkslq 17-05-14 74
241 김한용 기자님 시승 부탁드립니다 Norful 17-05-10 103
게시판